Location: Recife
(8.0585°S, 34.8848°W)
Time: 10:10:00
(UTC-03:00)

Vanguard 2 Rocket - Pass Details

Date: 20 April 2026
Orbit: 553 x 3286 km, 32.9° (Epoch: 8 May)

Event Time Altitude Azimuth Distance (km) Brightness Sun altitude
Rises 06:14:37 0° 245° (WSW) 3,844 9.5 11.9°
Reaches altitude 10° 06:17:56 10° 226° (SW) 3,266 9.3 12.7°
Maximum altitude 06:23:45 19° 183° (S) 3,237 9.6 14.1°
Drops below altitude 10° 06:31:54 10° 142° (SE) 4,771 10.9 16.1°
Sets 06:38:27 0° 127° (SE) 6,346 11.8 17.7°
